Probability
3 0 3 26 71 74 26 0 0 0 0 0 0 0 3 3 29 71 26 13 94 84 71 97 100 100 100 100 100 100 100 100 100 100 100 100 100 100 97 97 94 94 90 94 94 87 87 87 90
0 0 13 71 77 65 0 0 0 0 0 0 0 0 6 6 10 19 16 45 94 87 81 94 100 100 100 100 100 100 100 100 100 100 100 100 100 100 94 94 90 90 84 81 87 77 77 84 84
3 6 16 77 74 10 0 0 0 0 0 0 0 0 6 6 10 19 23 61 97 84 87 100 100 100 100 100 100 100 100 100 100 100 100 100 100 100 100 97 90 90 77 65 68 65 61 61 65
10 0 6 6 3 0 0 0 0 0 0 0 0 3 3 0 3 16 29 74 100 97 94 100 100 100 100 100 100 100 100 100 100 100 100 100 100 97 100 100 97 90 77 71 65 48 48 48 52
10 3 6 0 0 0 0 0 0 0 0 0 0 10 10 3 10 6 35 74 100 100 100 100 100 100 100 100 100 100 100 100 100 100 100 100 100 100 100 100 97 97 87 71 65 65 52 52 45
0 0 0 0 0 0 0 0 0 0 0 3 13 26 19 3 6 10 32 58 77 100 100 100 100 100 100 100 100 100 100 100 100 100 100 100 100 100 97 97 100 97 94 87 74 71 65 68 61
0 0 0 0 0 0 0 0 0 0 3 3 13 32 23 10 6 10 23 42 65 100 100 100 100 100 100 100 100 100 100 100 100 100 100 100 100 100 100 100 100 100 94 94 90 87 77 81 84
0 0 0 0 0 0 0 0 0 0 3 6 13 35 26 19 6 13 23 23 48 100 100 100 100 100 100 100 100 100 100 100 100 100 100 100 100 100 100 100 100 100 100 100 100 90 87 90 90
0 0 0 0 0 0 0 0 3 6 6 10 32 52 42 42 23 19 19 23 58 94 100 100 100 100 100 100 100 100 100 100 100 100 100 100 100 100 100 100 100 100 100 100 100 100 100 100 100
0 0 0 0 0 0 3 3 3 3 10 23 23 45 52 52 52 58 39 39 74 94 100 100 100 100 100 100 100 100 100 100 100 100 100 100 100 100 97 97 97 97 97 100 100 100 100 100 100
0 0 0 0 0 0 3 3 10 13 16 19 32 35 55 71 84 81 81 94 100 100 100 97 100 100 100 100 100 100 100 100 100 100 97 100 100 100 100 94 97 97 97 97 97 97 100 100 97
0 0 0 0 0 3 3 3 16 16 23 23 32 48 61 81 87 97 97 97 100 97 100 100 100 100 100 100 100 100 100 100 100 100 97 100 100 100 100 97 97 97 97 97 97 97 97 97 97
0 0 0 0 0 3 3 10 16 23 26 42 52 65 77 84 90 97 97 97 100 100 97 97 97 97 100 100 100 100 100 100 97 97 97 100 100 100 97 97 97 97 94 94 90 94 87 90 94
0 0 0 0 0 3 3 3 13 26 42 65 77 87 94 94 97 97 100 100 100 97 97 97 97 97 100 100 100 97 94 100 100 97 94 100 100 100 100 97 97 97 90 87 87 87 87 84 90
0 0 0 0 0 3 3 6 19 29 42 71 87 94 97 94 97 100 97 97 94 94 90 90 94 97 100 100 97 97 94 97 100 100 94 94 94 97 97 97 94 81 81 84 81 81 81 81 74
0 0 0 0 0 0 0 3 26 29 61 87 94 94 94 97 94 97 97 97 97 100 97 97 94 100 100 100 100 97 94 97 97 97 90 90 90 84 87 84 84 81 74 74 65 71 52 45 42
0 0 0 0 0 0 0 23 55 71 77 90 94 94 94 90 87 87 87 90 90 94 97 97 97 87 87 97 87 87 94 90 90 90 74 74 74 77 77 77 81 71 68 65 42 42 32 35 32
0 0 0 0 3 3 13 52 58 65 81 87 90 90 87 84 84 74 74 81 84 87 94 94 90 90 90 87 90 87 84 77 81 74 68 65 68 65 55 58 68 65 55 39 29 26 29 42 39
0 0 0 0 0 6 19 45 61 61 77 77 68 74 77 77 68 65 65 65 65 81 90 84 84 81 87 77 77 68 68 71 68 71 52 45 42 48 48 39 52 42 32 35 26 19 19 23 29
0 0 0 0 0 10 16 29 52 61 71 68 74 74 68 68 68 61 58 52 55 68 71 61 61 55 61 71 71 74 58 61 52 52 39 29 29 35 23 32 32 29 32 32 23 23 29 16 16
0 0 0 0 0 6 19 16 32 55 61 58 58 61 55 58 58 52 45 42 42 35 42 35 55 48 39 45 45 39 45 58 42 39 39 29 23 19 29 23 23 23 29 32 29 26 16 10 10
0 0 0 0 0 0 0 13 23 35 42 52 45 52 32 29 35 35 32 23 19 16 23 35 42 35 39 48 48 42 32 26 26 32 32 26 13 16 19 19 13 10 13 19 19 19 26 16 6
0 0 0 0 0 0 0 0 23 23 29 35 39 26 23 13 6 10 6 16 16 19 13 32 48 42 39 42 42 42 23 26 26 26 19 26 13 13 10 10 10 10 6 6 6 10 13 16 13
0 0 0 0 0 0 0 0 13 16 26 26 29 19 16 3 0 3 3 16 19 13 16 23 42 45 42 52 45 42 32 29 19 23 16 6 6 10 6 6 3 3 3 3 3 3 0 6 3
0 0 0 0 0 0 0 0 3 0 10 19 19 13 10 13 3 3 3 16 19 19 19 16 26 35 35 29 29 29 29 19 16 13 0 3 0 0 0 0 0 0 3 3 0 0 0 0 0
0 0 0 0 0 0 0 6 19 0 3 3 3 3 3 0 3 3 3 3 6 6 19 13 13 19 13 10 19 29 16 3 0 3 0 0 0 0 0 0 0 0 0 0 0 0 0 0 0
0 0 0 0 0 0 0 10 10 10 3 3 3 3 0 0 0 0 0 0 0 0 3 3 6 6 10 10 3 6 3 6 0 0 0 0 0 0 0 0 3 0 0 0 0 0 0 0 0
0 0 0 0 0 0 0 6 10 3 6 3 3 3 3 0 0 0 0 0 0 0 0 0 0 0 0 0 3 0 0 0 0 0 0 0 0 0 0 0 0 0 0 0 0 0 0 0 0
0 0 0 0 0 0 0 3 3 3 0 0 0 0 0 0 0 0 0 0 0 0 0 0 0 0 0 0 0 0 3 3 0 0 0 0 0 0 0 0 0 0 0 0 0 0 0 0 0
0 0 0 0 0 0 0 0 0 0 0 0 0 0 0 0 0 0 0 0 0 0 0 0 0 0 0 0 0 3 3 3 0 0 0 0 0 0 0 0 0 0 0 0 0 0 0 0 0
Height
5919 5920 5920 5920 5920 5918 5915 5915 5917 5918 5917 5917 5916 5915 5913 5914 5914 5916 5913 5911 5912 5911 5911 5911 5910 5910 5910 5909 5909 5908 5908 5907 5907 5906 5905 5905 5904 5903 5902 5902 5901 5900 5900 5899 5898 5898 5897 5896 5896
5919 5920 5920 5920 5919 5915 5914 5915 5917 5918 5917 5916 5915 5914 5913 5913 5913 5913 5911 5911 5911 5910 5910 5910 5910 5909 5909 5908 5908 5907 5907 5907 5906 5906 5905 5904 5903 5903 5902 5901 5900 5900 5899 5899 5898 5898 5897 5896 5896
5919 5919 5920 5920 5919 5917 5917 5918 5918 5918 5916 5915 5914 5913 5913 5912 5912 5912 5911 5911 5911 5910 5909 5909 5908 5908 5908 5907 5907 5906 5906 5905 5905 5904 5904 5903 5902 5902 5901 5900 5899 5899 5898 5898 5897 5897 5897 5896 5896
5918 5919 5920 5921 5919 5919 5920 5919 5918 5918 5916 5914 5913 5912 5911 5911 5911 5911 5910 5910 5910 5909 5908 5908 5907 5907 5906 5906 5905 5905 5904 5904 5903 5903 5902 5902 5901 5900 5899 5899 5898 5897 5897 5896 5896 5896 5895 5895 5895
5917 5918 5919 5919 5920 5920 5919 5917 5917 5917 5915 5914 5912 5910 5908 5909 5909 5909 5909 5909 5908 5908 5907 5907 5906 5906 5905 5905 5904 5903 5903 5902 5902 5901 5900 5900 5899 5898 5897 5897 5896 5895 5895 5894 5894 5894 5893 5893 5893
5915 5916 5917 5917 5921 5921 5919 5915 5916 5915 5913 5912 5910 5907 5906 5905 5907 5907 5907 5906 5906 5906 5906 5905 5905 5904 5904 5903 5902 5901 5901 5900 5899 5899 5898 5897 5896 5895 5895 5894 5893 5893 5892 5892 5891 5891 5891 5891 5891
5913 5913 5913 5915 5918 5920 5918 5914 5914 5912 5911 5910 5908 5905 5904 5903 5904 5905 5904 5904 5903 5904 5903 5903 5902 5902 5901 5901 5900 5899 5898 5897 5896 5896 5895 5894 5893 5892 5891 5890 5890 5889 5889 5888 5888 5888 5888 5888 5888
5909 5910 5910 5912 5916 5919 5916 5911 5911 5910 5909 5907 5906 5902 5901 5901 5901 5902 5902 5901 5900 5900 5901 5900 5900 5899 5898 5898 5897 5896 5895 5894 5893 5892 5891 5890 5889 5888 5887 5886 5885 5885 5885 5884 5884 5884 5885 5885 5885
5904 5906 5907 5909 5913 5915 5911 5907 5908 5907 5906 5904 5902 5899 5899 5900 5899 5899 5899 5899 5898 5897 5897 5897 5897 5896 5895 5894 5893 5892 5891 5890 5889 5888 5887 5885 5884 5883 5882 5881 5880 5880 5880 5880 5880 5880 5880 5880 5881
5899 5900 5902 5904 5907 5907 5905 5903 5904 5903 5901 5899 5896 5895 5896 5895 5896 5896 5896 5896 5895 5894 5893 5893 5893 5892 5891 5890 5889 5888 5887 5886 5885 5884 5882 5881 5879 5878 5877 5876 5875 5874 5874 5874 5875 5875 5875 5876 5876
5893 5895 5896 5897 5899 5899 5899 5899 5899 5899 5898 5894 5891 5892 5894 5893 5894 5894 5893 5892 5892 5891 5889 5888 5889 5888 5886 5886 5885 5884 5883 5882 5880 5879 5877 5876 5874 5872 5871 5870 5870 5869 5868 5868 5868 5869 5869 5870 5871
5887 5888 5889 5891 5891 5891 5893 5894 5893 5894 5893 5891 5890 5891 5891 5890 5891 5890 5889 5888 5887 5887 5885 5883 5884 5884 5882 5880 5880 5879 5877 5876 5874 5873 5872 5870 5868 5866 5864 5863 5863 5862 5862 5861 5861 5862 5862 5863 5864
5882 5883 5883 5884 5885 5886 5887 5888 5887 5887 5886 5886 5887 5887 5887 5887 5886 5886 5884 5882 5881 5883 5882 5880 5879 5879 5877 5875 5873 5873 5871 5870 5868 5866 5865 5863 5861 5860 5858 5857 5855 5854 5854 5854 5854 5854 5855 5856 5857
5876 5878 5879 5879 5880 5881 5882 5882 5882 5881 5881 5882 5882 5882 5882 5882 5882 5881 5880 5878 5876 5877 5877 5875 5873 5873 5871 5869 5867 5866 5865 5863 5861 5859 5857 5855 5854 5852 5851 5849 5848 5847 5846 5845 5846 5846 5846 5848 5849
5871 5873 5874 5875 5875 5876 5877 5878 5876 5875 5877 5877 5877 5877 5877 5877 5877 5877 5875 5873 5872 5873 5872 5870 5869 5867 5865 5864 5861 5859 5857 5855 5854 5852 5849 5846 5845 5844 5843 5842 5841 5839 5837 5837 5837 5838 5838 5839 5841
5868 5870 5871 5872 5872 5873 5875 5873 5871 5871 5871 5872 5872 5873 5873 5872 5872 5872 5870 5869 5868 5867 5866 5864 5863 5861 5860 5857 5854 5852 5850 5848 5845 5843 5841 5839 5837 5836 5834 5833 5832 5831 5830 5830 5829 5830 5830 5831 5833
5867 5867 5868 5869 5868 5869 5870 5869 5867 5867 5867 5867 5867 5868 5867 5867 5867 5866 5865 5864 5862 5861 5860 5858 5856 5855 5853 5850 5848 5845 5843 5840 5837 5835 5833 5831 5829 5827 5826 5825 5824 5822 5822 5821 5821 5822 5822 5823 5825
5863 5864 5865 5865 5864 5866 5865 5865 5864 5863 5863 5863 5863 5863 5862 5862 5861 5860 5859 5858 5857 5855 5854 5852 5850 5847 5845 5843 5840 5838 5835 5832 5829 5826 5824 5822 5820 5819 5817 5816 5815 5814 5813 5813 5813 5813 5814 5815 5817
5861 5862 5862 5862 5862 5864 5863 5862 5860 5859 5859 5859 5858 5858 5858 5857 5856 5855 5854 5853 5851 5850 5848 5846 5843 5841 5838 5835 5832 5829 5826 5823 5821 5818 5816 5814 5812 5810 5809 5807 5806 5805 5804 5804 5804 5805 5806 5807 5809
5862 5860 5859 5859 5861 5862 5860 5857 5856 5855 5855 5854 5854 5854 5853 5853 5852 5850 5849 5848 5846 5844 5842 5839 5836 5834 5830 5827 5824 5821 5818 5815 5812 5809 5807 5806 5803 5801 5800 5799 5797 5796 5796 5796 5796 5797 5798 5800 5802
5860 5859 5860 5860 5860 5858 5855 5852 5849 5851 5850 5851 5851 5850 5849 5848 5847 5846 5844 5842 5840 5837 5835 5832 5829 5826 5822 5819 5815 5812 5808 5805 5802 5800 5798 5796 5794 5792 5791 5790 5789 5788 5787 5788 5788 5789 5790 5792 5795
5858 5858 5857 5857 5856 5855 5853 5849 5845 5845 5846 5847 5848 5847 5846 5844 5843 5841 5838 5836 5833 5831 5828 5825 5821 5818 5814 5810 5806 5802 5799 5795 5792 5789 5787 5785 5784 5782 5781 5780 5779 5779 5778 5779 5779 5780 5782 5784 5786
5857 5857 5856 5854 5852 5850 5847 5843 5840 5836 5842 5845 5845 5845 5842 5840 5838 5836 5833 5830 5827 5824 5820 5817 5814 5810 5805 5801 5797 5793 5789 5785 5781 5778 5776 5774 5773 5771 5770 5769 5769 5769 5768 5768 5770 5771 5772 5774 5777
5858 5856 5854 5852 5850 5847 5845 5843 5840 5839 5841 5843 5842 5841 5839 5836 5834 5831 5828 5824 5821 5817 5813 5809 5804 5800 5796 5791 5786 5782 5778 5774 5770 5767 5764 5762 5760 5759 5758 5757 5757 5758 5757 5757 5759 5761 5762 5764 5767
5857 5855 5852 5849 5845 5843 5843 5842 5842 5841 5842 5841 5840 5838 5835 5832 5830 5826 5823 5818 5814 5809 5805 5800 5795 5791 5785 5780 5776 5771 5766 5762 5759 5755 5752 5749 5747 5746 5745 5744 5744 5745 5745 5746 5747 5749 5751 5754 5757
5857 5855 5852 5849 5846 5842 5840 5839 5840 5841 5841 5839 5837 5835 5832 5829 5825 5821 5817 5812 5807 5802 5796 5791 5785 5780 5775 5770 5765 5760 5755 5751 5747 5744 5740 5737 5735 5733 5731 5731 5731 5732 5733 5733 5734 5736 5738 5741 5744
5856 5855 5854 5853 5850 5846 5842 5839 5839 5840 5840 5838 5835 5833 5829 5825 5821 5816 5811 5806 5800 5794 5788 5782 5776 5771 5765 5759 5754 5749 5744 5740 5736 5732 5729 5726 5723 5721 5719 5717 5717 5718 5719 5720 5721 5722 5724 5727 5731
5857 5855 5854 5853 5851 5849 5846 5842 5840 5839 5838 5836 5833 5829 5826 5821 5817 5811 5806 5800 5794 5787 5780 5774 5767 5761 5755 5749 5743 5738 5733 5728 5724 5720 5717 5713 5711 5708 5706 5704 5703 5703 5703 5705 5706 5708 5710 5713 5716
5856 5855 5853 5852 5850 5850 5848 5844 5840 5838 5836 5833 5830 5826 5821 5817 5812 5806 5800 5793 5786 5779 5772 5765 5758 5751 5744 5738 5732 5726 5722 5717 5712 5708 5704 5700 5697 5694 5691 5689 5687 5687 5687 5688 5689 5691 5694 5697 5700
5855 5853 5852 5852 5850 5849 5848 5845 5839 5835 5832 5829 5826 5822 5817 5812 5806 5800 5793 5786 5779 5771 5764 5756 5748 5741 5733 5727 5720 5714 5709 5704 5699 5694 5689 5685 5681 5677 5674 5672 5670 5669 5669 5669 5671 5673 5676 5679 5683
Wind_Speed
6 5 5 4 4 4 4 6 5 7 8 9 9 8 9 8 8 8 9 9 8 9 8 8 7 7 6 6 6 7 8 9 10 10 10 10 11 11 10 10 9 9 8 8 7 7 6 6 6
6 6 5 5 6 10 8 7 7 10 11 10 10 9 11 10 9 9 9 10 9 9 9 8 8 7 6 6 7 7 8 9 9 10 10 10 11 11 11 10 10 10 9 8 8 7 7 6 6
7 6 5 5 7 10 10 10 10 12 12 12 12 11 11 11 10 11 10 10 10 10 9 8 8 8 7 7 7 8 8 9 9 10 11 11 11 11 11 11 11 11 10 10 9 9 8 8 7
9 7 5 3 7 10 11 12 10 9 12 11 11 13 12 12 12 12 12 11 11 10 9 8 8 9 8 8 9 9 10 11 11 12 12 13 13 13 13 13 12 12 12 11 11 10 10 10 9
11 9 5 4 7 12 12 15 12 11 11 11 13 16 14 13 14 14 13 13 12 11 11 10 10 10 11 11 12 12 13 14 14 14 14 15 15 15 15 15 14 14 13 13 13 12 12 12 12
13 11 8 2 6 11 15 17 12 11 11 12 13 17 17 14 13 14 14 14 14 12 12 13 13 13 14 14 14 15 16 17 17 18 18 18 17 17 17 17 17 16 16 15 15 15 15 15 14
15 15 12 7 8 12 17 20 15 14 13 12 13 19 20 16 12 14 15 15 15 14 15 15 15 16 16 17 18 18 19 19 20 20 20 20 20 20 20 20 19 19 18 18 17 17 17 17 17
18 17 14 8 7 11 17 21 17 15 14 15 16 21 21 18 15 15 16 17 18 17 17 18 18 18 19 20 20 21 21 21 21 22 22 22 22 23 23 22 22 22 21 20 20 19 19 19 19
21 19 15 8 8 11 18 22 18 16 15 18 18 21 21 18 17 17 18 19 20 21 20 20 20 21 21 22 22 23 23 23 24 24 25 25 25 26 25 25 24 24 24 23 23 22 21 21 21
22 21 16 12 15 17 20 23 20 16 16 20 20 19 20 17 18 19 20 21 21 23 23 23 22 23 23 23 24 24 25 25 26 27 27 28 28 28 28 27 26 26 26 26 25 25 24 23 23
24 22 20 18 19 23 24 22 20 19 21 24 24 20 21 19 20 21 23 23 23 24 25 26 25 25 27 27 26 28 28 28 29 29 30 30 30 30 30 29 28 28 29 28 28 27 27 26 26
25 23 22 22 23 25 23 23 23 22 24 27 27 25 25 23 22 24 25 26 26 25 27 29 28 28 30 31 30 31 31 31 31 32 32 32 32 32 32 31 30 30 30 31 31 30 29 28 28
23 23 22 23 25 26 24 23 24 24 26 27 27 27 27 26 26 27 27 27 26 28 30 32 32 31 32 33 33 33 34 34 34 35 35 35 34 34 34 35 34 33 32 32 33 33 31 31 30
20 20 20 20 22 22 22 22 24 25 26 26 26 27 28 28 28 29 31 30 30 32 33 34 33 35 35 36 36 37 38 37 37 38 38 38 37 35 36 36 35 35 35 34 34 33 32 32 32
16 15 15 16 18 19 19 20 23 24 24 24 25 26 27 28 29 30 32 33 34 35 36 36 36 36 37 38 39 39 41 40 40 40 40 39 38 37 37 37 36 36 36 35 35 34 34 33 33
8 10 12 13 13 15 15 18 23 22 22 23 23 24 25 26 28 29 31 33 34 34 35 36 36 37 38 39 40 41 42 43 42 40 40 39 38 38 38 38 38 37 37 36 36 35 35 35 34
7 10 11 14 14 12 12 18 22 22 22 22 22 22 23 24 26 27 28 30 31 33 34 36 37 38 39 41 42 43 44 43 43 42 41 40 39 38 39 39 38 37 36 36 35 34 34 35 35
10 10 13 15 11 11 13 19 22 21 21 21 21 21 22 23 24 25 27 28 30 31 33 35 37 38 39 40 41 42 42 43 42 41 40 39 39 39 39 38 36 37 37 36 35 33 33 33 34
6 8 10 10 9 13 17 20 20 19 20 20 20 20 20 21 22 24 25 27 29 31 33 35 37 38 39 40 41 41 41 42 42 41 40 40 39 39 38 38 37 37 36 35 33 32 32 31 32
7 9 10 13 14 16 17 18 16 17 16 16 17 18 18 19 20 22 24 26 28 30 32 34 35 37 38 40 41 41 42 42 42 42 41 41 40 39 39 39 37 36 35 34 33 33 32 31 32
8 11 10 11 13 16 15 15 16 14 12 12 14 16 17 19 20 22 24 26 28 30 32 33 35 36 38 39 40 41 41 42 43 42 42 41 39 39 39 39 38 37 36 36 35 34 34 33 33
10 11 11 10 12 14 17 19 18 11 9 8 12 15 17 19 20 22 24 26 28 30 31 33 35 36 38 39 41 42 43 43 43 43 43 42 41 40 40 40 39 38 38 37 36 35 35 35 34
7 9 10 12 15 17 18 18 16 10 6 11 13 16 19 20 21 23 25 26 28 30 32 33 34 36 38 40 41 42 43 44 44 44 44 43 43 43 42 41 41 41 40 39 38 37 37 36 36
6 9 12 14 17 17 12 13 12 12 15 16 18 19 20 21 22 24 26 28 30 31 33 35 36 38 39 41 41 42 43 44 44 45 46 45 45 44 43 43 42 42 42 42 41 40 40 39 38
7 11 13 14 15 8 4 7 10 15 17 19 21 22 23 23 24 26 28 30 32 34 35 36 38 39 40 41 41 42 43 43 44 45 45 45 45 45 44 44 43 42 43 43 43 43 43 43 42
7 11 15 17 20 13 7 7 10 15 17 20 22 23 24 25 27 29 31 33 34 36 38 39 40 41 41 41 42 42 43 43 43 43 44 44 43 44 44 44 43 43 43 44 44 44 45 45 46
7 8 10 10 13 15 15 13 12 16 19 23 24 25 25 27 29 31 34 36 37 39 41 42 43 43 43 43 43 43 43 43 43 43 43 44 44 45 45 45 44 43 44 45 46 47 47 47 47
8 8 8 6 8 9 16 19 18 21 23 25 26 26 27 29 30 33 35 37 39 41 42 43 44 45 44 44 43 43 42 42 43 43 44 45 46 46 47 47 47 47 47 47 48 49 50 51 51
9 8 9 7 8 7 12 22 23 25 25 26 26 28 29 30 32 35 37 39 41 43 44 45 46 46 45 45 44 43 42 43 44 45 46 47 48 49 49 50 51 51 51 51 50 51 51 52 54
8 10 10 10 10 9 10 22 25 26 26 27 28 29 30 32 34 36 39 41 43 44 45 46 46 46 46 45 45 44 44 44 45 47 48 49 50 51 52 53 53 54 54 54 54 54 54 54 55
Wind_Direction
357 3 6 4 360 1 37 65 5 322 327 332 333 324 307 308 308 300 295 298 302 300 304 305 306 308 313 324 331 334 335 335 334 335 337 339 339 339 339 339 339 338 339 338 337 337 340 344 348
334 337 339 343 340 358 8 16 337 325 325 324 323 317 311 315 316 313 304 303 302 303 306 308 307 306 311 320 325 328 329 329 329 329 329 330 331 331 330 329 329 327 327 326 323 320 320 322 326
312 313 323 338 354 348 341 327 321 323 318 322 317 310 312 315 314 313 308 306 302 303 304 305 304 304 308 315 317 319 321 321 323 325 324 323 322 321 321 321 320 319 317 316 313 309 306 304 304
299 302 311 328 360 323 317 308 309 316 310 316 309 300 304 308 308 306 305 305 303 302 299 301 303 305 308 312 316 317 316 315 316 316 317 317 315 313 312 311 310 309 308 306 304 299 296 292 289
294 291 286 344 344 303 300 296 300 307 301 305 300 298 297 298 300 299 300 300 302 300 297 300 303 306 309 312 314 314 313 312 311 311 309 309 309 309 307 305 303 301 299 297 295 292 287 285 281
288 283 274 305 303 294 292 291 299 292 291 292 291 291 291 290 297 297 299 299 300 301 300 301 304 307 309 312 312 312 312 311 310 310 309 307 305 305 305 302 298 296 294 292 288 286 283 279 277
284 279 272 248 247 277 283 285 289 279 283 277 281 286 284 283 290 296 301 301 300 301 302 301 303 305 307 309 311 310 311 311 310 310 308 307 305 304 303 301 297 294 291 288 285 282 279 276 274
280 277 272 255 252 272 276 278 281 279 277 276 279 277 280 289 296 296 300 300 300 300 302 301 304 306 306 307 309 308 308 308 309 308 307 306 304 303 301 299 297 293 290 286 283 280 276 273 271
276 273 269 251 248 258 264 267 271 280 281 279 271 271 280 287 292 295 295 296 298 298 300 302 305 306 305 306 306 306 306 307 307 308 307 305 303 302 299 296 296 292 288 285 282 279 275 272 270
272 269 260 240 241 240 251 262 265 264 263 267 267 268 282 285 289 290 291 292 295 298 300 300 303 304 305 305 305 305 306 306 306 306 306 305 303 301 298 294 293 291 287 283 282 278 274 271 269
269 265 254 237 241 244 246 257 262 258 258 262 267 271 281 285 286 287 288 290 291 295 297 298 301 302 303 304 304 304 304 304 305 305 304 304 303 300 297 296 291 289 287 283 280 277 273 269 268
267 263 254 245 244 248 249 252 254 254 256 263 267 271 275 280 282 285 286 286 287 289 293 296 300 301 301 301 301 302 302 302 301 302 302 302 301 298 295 294 293 288 285 283 281 277 272 267 266
264 264 259 253 252 255 254 252 251 253 257 262 267 269 272 276 279 280 281 281 284 288 291 293 294 298 299 299 300 301 299 298 299 299 298 297 297 294 293 294 294 289 285 281 278 276 271 266 265
262 262 260 258 258 258 255 253 254 253 259 263 266 267 268 271 274 277 279 282 285 287 288 289 291 294 296 297 298 299 298 298 298 296 295 295 295 293 290 289 290 289 286 282 277 277 271 267 265
263 261 259 257 259 261 259 253 254 254 262 265 264 265 268 270 273 275 277 279 283 285 286 287 289 291 294 295 295 295 296 295 296 295 293 293 293 292 291 289 288 288 285 283 278 276 270 266 263
263 263 258 252 248 255 256 255 258 261 262 265 266 266 266 268 270 272 275 277 279 281 283 286 288 290 291 292 293 293 293 294 294 294 293 292 292 291 290 288 288 285 282 280 279 276 271 266 261
270 259 251 240 235 245 248 249 259 265 269 272 272 270 269 269 271 273 275 277 279 281 283 285 287 289 289 290 290 291 291 292 293 293 292 289 289 289 289 288 287 285 280 278 278 277 272 265 259
248 246 237 232 227 246 251 258 266 269 274 277 277 276 275 274 275 276 277 279 281 283 285 286 287 288 289 290 291 291 291 292 292 292 292 290 288 287 287 287 285 282 280 276 275 274 270 264 258
275 255 243 235 240 262 268 270 269 273 279 282 282 282 281 280 280 280 280 281 283 284 286 287 288 289 290 290 291 291 291 292 291 290 289 289 288 286 286 284 284 281 277 273 272 271 268 264 258
260 239 239 246 255 264 266 268 267 275 275 281 286 287 286 284 284 284 284 284 285 286 287 288 289 290 290 291 291 291 291 291 290 290 288 288 287 284 283 281 281 280 277 273 270 267 265 262 256
253 249 244 266 274 270 267 258 257 261 271 285 294 296 295 293 291 291 291 290 290 290 290 291 292 292 292 292 292 292 291 291 290 289 288 287 285 283 282 281 278 278 277 272 266 262 261 261 256
254 251 250 260 271 271 271 269 271 264 281 300 309 307 305 303 301 299 297 296 296 295 295 295 295 295 295 294 294 294 293 292 291 290 289 287 285 283 281 279 276 275 275 271 265 261 260 258 254
278 262 265 265 257 258 267 270 286 276 341 336 327 318 313 310 308 306 305 304 303 302 301 300 299 299 298 297 296 295 294 293 292 291 289 287 286 284 282 279 276 273 272 270 265 262 258 255 252
287 275 272 269 266 262 271 277 304 339 338 337 329 322 318 315 313 312 311 310 309 308 307 306 304 303 301 300 298 297 296 294 293 292 291 289 287 285 282 279 276 273 270 268 266 263 258 255 251
286 297 304 310 307 303 300 284 329 340 338 333 328 324 322 320 318 317 317 316 314 313 311 310 309 308 305 303 301 300 298 296 294 293 291 290 288 286 283 280 277 273 269 267 265 262 259 255 252
312 320 333 341 335 340 348 304 330 336 333 328 326 325 323 322 322 321 321 320 319 318 316 315 314 312 309 306 304 302 300 298 296 294 292 291 289 287 284 281 278 274 269 267 265 261 258 254 252
319 315 324 333 336 338 337 331 329 329 329 326 325 324 323 323 322 323 323 323 322 321 319 317 316 314 311 308 305 303 300 298 296 294 292 290 287 285 283 281 279 275 270 266 264 261 258 256 253
328 324 318 322 328 344 334 322 319 320 321 321 322 323 323 323 323 323 324 324 323 322 320 318 316 314 312 309 306 303 301 298 296 294 291 289 287 284 282 280 278 275 272 268 265 262 259 256 254
322 315 313 312 305 318 323 309 311 312 315 319 321 322 322 322 323 324 325 324 324 323 321 319 317 315 313 311 308 305 301 299 297 294 291 289 286 283 280 278 276 274 271 268 265 261 259 256 253
317 314 318 324 319 324 317 301 306 310 315 319 320 321 321 322 323 325 325 325 324 323 322 320 318 316 314 312 310 306 303 301 298 296 293 290 287 284 280 277 275 272 270 268 265 262 259 256 253